TimeCDT,TemperatureF,Dew PointF,Humidity,Sea Level PressureIn,VisibilityMPH,Wind Direction,Wind SpeedMPH,Gust SpeedMPH,PrecipitationIn,Events,Conditions,WindDirDegrees,DateUTC
12:53 AM,64.0,60.1,87,30.06,10.0,North,3.5,-,N/A,,Clear,10,2013-05-02 05:53:00
1:53 AM,64.9,60.1,84,30.05,10.0,Calm,Calm,-,N/A,,Clear,0,2013-05-02 06:53:00
2:53 AM,62.1,59.0,90,30.04,10.0,Calm,Calm,-,N/A,,Clear,0,2013-05-02 07:53:00
3:53 AM,60.1,57.9,93,30.06,6.0,Calm,Calm,-,N/A,,Clear,0,2013-05-02 08:53:00
4:53 AM,59.0,57.0,93,30.06,3.0,Calm,Calm,-,N/A,,Clear,0,2013-05-02 09:53:00
5:53 AM,57.9,55.9,93,30.08,3.0,Calm,Calm,-,N/A,,Clear,0,2013-05-02 10:53:00
6:53 AM,59.0,57.0,93,30.09,3.0,Calm,Calm,-,N/A,,Clear,0,2013-05-02 11:53:00
7:53 AM,66.0,60.1,81,30.11,9.0,Calm,Calm,-,N/A,,Clear,0,2013-05-02 12:53:00
8:53 AM,69.1,59.0,70,30.13,10.0,SSE,6.9,-,N/A,,Clear,160,2013-05-02 13:53:00
9:53 AM,71.1,59.0,66,30.12,10.0,South,4.6,-,N/A,,Clear,180,2013-05-02 14:53:00
10:53 AM,75.0,59.0,57,30.11,-9999.0,South,3.5,-,N/A,,Clear,190,2013-05-02 15:53:00
11:53 AM,72.0,59.0,64,30.11,10.0,SSE,4.6,-,N/A,,Clear,160,2013-05-02 16:53:00
12:53 PM,72.0,59.0,64,30.09,10.0,South,8.1,-,N/A,,Clear,170,2013-05-02 17:53:00
1:53 PM,72.0,57.9,61,30.08,10.0,SSE,3.5,-,0.00,Rain,Light Rain,150,2013-05-02 18:53:00
2:53 PM,72.0,59.0,64,30.07,10.0,South,4.6,-,0.00,Rain,Light Rain,180,2013-05-02 19:53:00
3:53 PM,70.0,61.0,73,30.06,10.0,South,4.6,-,0.00,,Overcast,170,2013-05-02 20:53:00
4:53 PM,70.0,60.1,71,30.05,10.0,South,5.8,-,N/A,,Overcast,180,2013-05-02 21:53:00
5:53 PM,69.1,61.0,75,30.05,10.0,SSW,4.6,-,0.00,Rain,Light Rain,210,2013-05-02 22:53:00
6:53 PM,66.0,61.0,84,30.05,10.0,Calm,Calm,-,0.02,Rain,Light Rain,0,2013-05-02 23:53:00
7:53 PM,66.0,63.0,90,30.05,5.0,WNW,6.9,-,0.01,Rain,Light Rain,290,2013-05-03 00:53:00
8:53 PM,62.1,57.9,86,30.05,8.0,NNW,10.4,-,0.03,Rain,Light Rain,340,2013-05-03 01:53:00
9:24 PM,60.8,57.2,88,30.06,9.0,NNW,6.9,-,0.01,Rain,Light Rain,340,2013-05-03 02:24:00
9:48 PM,60.8,57.2,88,30.06,8.0,NNW,9.2,-,0.02,Rain,Light Rain,340,2013-05-03 02:48:00
9:53 PM,60.1,57.0,90,30.05,8.0,NNW,9.2,-,0.02,Rain,Light Rain,340,2013-05-03 02:53:00
10:53 PM,57.9,55.0,90,30.04,7.0,NNE,10.4,-,0.02,Rain,Light Rain,20,2013-05-03 03:53:00
11:02 PM,57.2,53.6,88,30.04,8.0,NNE,10.4,-,0.00,Rain,Light Rain,30,2013-05-03 04:02:00
11:34 PM,57.2,53.6,88,30.03,7.0,NNE,8.1,-,0.02,Rain,Light Rain,20,2013-05-03 04:34:00
11:53 PM,55.9,54.0,93,30.03,7.0,North,8.1,-,0.03,Rain,Light Rain,360,2013-05-03 04:53:00